Location: Gälforsberget
(66.6500°N, 22.4167°E)
Time: 21:24:47
(UTC+00:00)

CZ-4 R/B - Pass Details

Date: 11 April 2026
Orbit: 490 x 537 km, 97.5° (Epoch: 13 May)

Event Time Altitude Azimuth Distance (km) Brightness Sun altitude
Rises 19:05:20 0° 198° (SSW) 2,652 4.6 -6.2°
Reaches altitude 10° 19:07:45 10° 212° (SSW) 1,758 3.8 -6.4°
Maximum altitude 19:10:53 24° 268° (W) 1,096 3.5 -6.6°
Drops below altitude 10° 19:14:01 10° 325° (NW) 1,745 5.4 -6.8°
Sets 19:16:24 0° 339° (NNW) 2,627 6.0 -7.0°
